9M2SES-13 Weather Reports


time (UTC)temp
C
wind
direction
speed
KPH
gust
KPH
rain 1hr
cm
rain 24hr
cm
rain mn
cm
humidity
%
barometer
mb
20260506225718 25 0 11.3 24.1 0.00 0.00 0.10 95
20260506223717 26 0 0.0 37.0 0.00 0.00 0.10 95
20260506222716 26 0 0.0 0.0 0.00 0.00 0.10 95
20260506221716 26 0 0.0 24.1 0.00 0.00 0.10 95
20260506220715 26 0 11.3 49.9 0.00 0.00 0.10 95
20260506214714 26 315 0.0 24.1 0.00 0.00 0.10 95
20260506212713 26 315 0.0 24.1 0.00 0.00 0.10 95
20260506211712 26 315 0.0 11.3 0.00 0.00 0.10 95
20260506205711 26 270 0.0 11.3 0.00 0.00 0.10 95
20260506204710 26 270 0.0 24.1 0.00 0.00 0.10 95
20260506201707 26 315 0.0 24.1 0.00 0.00 0.10 95
20260506195705 26 0 0.0 24.1 0.00 0.00 0.10 95
20260506194705 26 0 0.0 24.1 0.00 0.00 0.10 95
20260506193704 26 0 0.0 24.1 0.00 0.00 0.10 95
20260506192703 25 0 11.3 37.0 0.00 0.00 0.10 95
20260506191702 26 180 37.0 49.9 0.00 0.00 0.10 95
20260506185700 26 315 11.3 24.1 0.00 0.00 0.10 95
20260506184659 26 315 0.0 24.1 0.00 0.00 0.10 95
20260506182658 27 315 0.0 24.1 0.00 0.00 0.10 95
20260506181657 27 0 0.0 11.3 0.00 0.00 0.10 93
20260506180656 26 0 0.0 24.1 0.00 0.00 0.10 95
20260506173653 26 180 11.3 24.1 0.00 0.00 0.10 95
20260506172653 26 180 0.0 37.0 0.00 0.00 0.10 95
20260506171652 27 0 0.0 24.1 0.00 0.00 0.10 95
20260506170651 26 0 0.0 24.1 0.00 0.00 0.10 95
20260506165650 27 0 0.0 37.0 0.00 0.10 0.10 95
20260506164649 27 0 11.3 24.1 0.00 0.10 0.10 95
20260506163648 26 0 0.0 37.0 0.00 0.10 0.10 95
20260506161646 27 0 0.0 11.3 0.00 0.10 0.10 95
20260506155645 26 270 0.0 49.9 0.00 0.10 0.10 95
20260506154645 27 270 24.1 75.6 0.00 0.10 0.10 95
20260506152643 27 180 24.1 62.8 0.00 0.10 0.10 95
20260506151642 27 270 0.0 11.3 0.00 0.10 0.10 95
20260506150641 27 270 0.0 24.1 0.00 0.10 0.10 95
20260506145639 27 0 11.3 49.9 0.00 0.10 0.10 95
20260506143638 27 270 0.0 37.0 0.00 0.10 0.10 95
20260506142637 27 270 0.0 37.0 0.00 0.10 0.10 95
20260506141636 27 0 24.1 37.0 0.00 0.10 0.10 95
20260506140635 27 0 0.0 24.1 0.00 0.10 0.10 93
20260506135635 27 0 11.3 37.0 0.00 0.10 0.10 95
20260506132632 27 0 0.0 24.1 0.00 0.10 0.10 95
20260506131631 27 0 0.0 24.1 0.00 0.10 0.10 95
20260506130631 28 0 0.0 24.1 0.00 0.10 0.10 95
20260506124629 27 0 24.1 37.0 0.00 0.10 0.10 95
20260506123629 27 270 0.0 24.1 0.00 0.10 0.10 95
20260506120626 28 270 0.0 24.1 0.00 0.10 0.10 95
20260506115626 27 270 24.1 49.9 0.00 0.10 0.10 95
20260506114625 28 0 24.1 49.9 0.00 0.10 0.10 95
20260506112623 28 180 0.0 24.1 0.00 0.10 0.10 95
20260506111623 28 0 0.0 24.1 0.00 0.10 0.10 95
20260506105621 30 315 11.3 24.1 0.00 0.10 0.10 95
20260506103619 28 0 0.0 24.1 0.00 0.10 0.10 95
20260506102618 27 180 0.0 24.1 0.00 0.10 0.10 95
20260506100616 30 270 0.0 37.0 0.00 0.10 0.10 95
20260506093614 27 0 24.1 49.9 0.05 0.10 0.10 86
20260506091612 28 315 37.0 49.9 0.05 0.10 0.10 95
20260506090611 28 315 11.3 49.9 0.05 0.10 0.10 95
20260506084610 28 315 11.3 37.0 0.05 0.05 0.10 92
20260506083609 26 180 0.0 88.5 0.05 0.05 0.10 95
20260506081607 28 180 49.9 127.1 0.05 0.05 0.10 95
20260506071602 31 180 75.6 152.9 0.00 0.00 0.10 95
20260506070601 30 180 62.8 164.2 0.00 0.00 0.10 95
20260506060557 35 90 24.1 114.3 0.00 0.00 0.10 16
20260506050552 33 0 24.1 101.4 0.00 0.00 0.10 11
20260506044551 35 0 0.0 75.6 0.00 0.00 0.10 10
20260506043551 35 0 37.0 62.8 0.00 0.00 0.10 24
20260506042550 32 180 11.3 62.8 0.00 0.00 0.10 46
20260506040548 31 180 0.0 75.6 0.00 0.00 0.10 71
20260506035548 31 180 11.3 75.6 0.00 0.00 0.10 95
20260506034547 31 180 11.3 101.4 0.00 0.00 0.10 95
20260506032545 32 180 37.0 127.1 0.00 0.00 0.10 95
20260506031544 30 180 24.1 101.4 0.00 0.00 0.10 95
20260506030543 31 180 24.1 88.5 0.00 0.00 0.10 95
20260506024541 32 315 11.3 49.9 0.00 0.00 0.10 95
20260506023540 33 315 11.3 49.9 0.00 0.00 0.10 94
20260506022540 32 315 11.3 49.9 0.00 0.00 0.10 95
20260506021539 31 180 0.0 49.9 0.00 0.00 0.10 95
20260506020539 30 180 0.0 37.0 0.00 0.00 0.10 95
20260506015538 30 180 24.1 49.9 0.00 0.00 0.10 95
20260506013537 30 180 24.1 37.0 0.00 0.00 0.10 95
20260506012536 30 270 24.1 24.1 0.00 0.00 0.10 95
20260506010535 28 270 11.3 49.9 0.00 0.00 0.10 95
20260506005534 28 270 11.3 49.9 0.00 0.00 0.10 95
20260506003533 27 270 11.3 24.1 0.00 0.00 0.10 95
20260506002532 27 315 11.3 37.0 0.00 0.00 0.10 95
20260506001532 27 315 24.1 62.8 0.00 0.00 0.10 95
20260506000531 27 315 0.0 24.1 0.00 0.00 0.10 95
20260505234530 26 180 0.0 24.1 0.00 0.00 0.10 95
20260505233529 26 180 0.0 24.1 0.00 0.00 0.10 95
20260505231527 27 180 0.0 24.1 0.00 0.00 0.10 95
20260505230527 26 270 0.0 11.3 0.00 0.00 0.10 95